星链-4433 (STARLINK-4433 )

导读 | 豆包AI

STARLINK-4433是美国太空探索技术公司星链计划的卫星,于2022年8月12日发射入轨,属于星链低轨互联网星座组网卫星。它承担着为全球范围内用户提供高速宽带互联网接入服务的任务,依托低轨道部署优势,可降低通信延迟,助力星链完成全球网络覆盖布局。

基本信息
目录编号:
53478
目录名称:
STARLINK-4433
国际标识:
2022-099P
轨道中心:
EARTH
卫星名称:
星链-4433
卫星全名:
星链-4433 (STARLINK-4433 )
卫星状态:
在轨 (已飞行1357 天)
发射日期:
2022-08-12 UTC
国别 :
美国 (US)
星等 :
--
轨道信息
数据来源 国际轨道数据 AOE轨道数据
星历时间 2026-04-30T14:57:03+0800
12小时前
查看轨道信息
2026-04-27T03:00:00+0800
4天前
查看轨道信息
半长轴 6927.612km 6927.637km
偏心率 0.0001662 0.0001566
轨道倾角 97.556° 97.572°
近地点辐角 63.330° 99.049°
升交点赤经 240.868° 237.442°
平近点角 296.810° 32.957°
近地点 548.323km 548.415km
远地点 550.627km 550.585km
周期 95.639分钟 95.640分钟
每日圈数 15.056621 15.056539
详细信息
固有亮度:
5
最大亮度:
2.5
卫星平台:
Starlink v1.5
覆盖范围:
全球
运营商:
太空探索技术公司
运营商所在国:
美国
制造商(研发单位):
太空探索技术公司
制造商所在国:
美国
使用方式:
暂无
卫星简介
星链(Starlink)计划是由太空探索技术公司(SpaceX)提出的一个巨型低轨卫星互联网星座项目,计划在2019年至2024年间在太空搭建由约1.2万颗卫星组成的“星链”网络,其中1584颗将部署在地球上空550千米处的近地轨道,并从2020年开始工作。该卫星仍在工作。
2D轨道图
3D轨道图
轨道高度分析图
轨道倾角分析图
轨道综合分析图
查看轨道综合分析图